This is the latest recevied weather packets stored in our database for station/object HB9HFD-13. If no packets are shown the sender has not sent any weather packets the latest 10 day(s).
| Time | Temp. | Humidity | Pressure | Rain* | Wind** | Luminosity | Snow |
|---|---|---|---|---|---|---|---|
| 1777468630 | 19.44° C | 62% | 1013.9 hPa | 0 mm | - | - | - |
| 1777468330 | 19.44° C | 63% | 1014 hPa | 0 mm | - | - | - |
| 1777468030 | 19.44° C | 61% | 1014 hPa | 0 mm | - | - | - |
| 1777467729 | 19.44° C | 62% | 1014 hPa | 0 mm | - | - | - |
| 1777467429 | 19.44° C | 62% | 1014.1 hPa | 0 mm | - | - | - |
| 1777467129 | 18.89° C | 63% | 1014.1 hPa | 0 mm | - | - | - |
| 1777466829 | 18.89° C | 62% | 1014.1 hPa | 0 mm | - | - | - |
| 1777466528 | 19.44° C | 60% | 1014.2 hPa | 0 mm | - | - | - |
| 1777466228 | 19.44° C | 61% | 1014 hPa | 0 mm | - | - | - |
| 1777465928 | 19.44° C | 61% | 1014 hPa | 0 mm | - | - | - |
| 1777465628 | 19.44° C | 60% | 1014.1 hPa | 0 mm | - | - | - |
| 1777465327 | 19.44° C | 58% | 1014.2 hPa | 0 mm | - | - | - |
| 1777465027 | 20.56° C | 59% | 1014.2 hPa | 0 mm | - | - | - |
| 1777464727 | 20° C | 58% | 1014.2 hPa | 0 mm | - | - | - |
| 1777464426 | 20° C | 58% | 1014.3 hPa | 0 mm | - | - | - |
| 1777464126 | 20.56° C | 58% | 1014.3 hPa | 0 mm | - | - | - |
| 1777463826 | 20.56° C | 61% | 1014.4 hPa | 0 mm | - | - | - |
| 1777463526 | 20° C | 61% | 1014.4 hPa | 0 mm | - | - | - |
| 1777463226 | 19.44° C | 63% | 1014.4 hPa | 0 mm | - | - | - |
| 1777462925 | 19.44° C | 62% | 1014.4 hPa | 0 mm | - | - | - |
| 1777462625 | 19.44° C | 64% | 1014.4 hPa | 0 mm | - | - | - |
| 1777462325 | 18.89° C | 64% | 1014.5 hPa | 0 mm | - | - | - |
| 1777462024 | 18.89° C | 65% | 1014.4 hPa | 0 mm | - | - | - |
| 1777461724 | 18.33° C | 66% | 1014.5 hPa | 0 mm | - | - | - |
| 1777461424 | 18.89° C | 65% | 1014.5 hPa | 0 mm | - | - | - |
* Rain latest hour (hover to see other rain measurements)
** Current wind speed in m/s (hover to see current wind gust speed)